sat.trackr.live / text

‹ back to catalog

KUIPER-00109

NORAD 65147 · 2025-171R

PAYLOAD ACTIVE UNKNOWN

§ Identity

Operator
Country
US
Launch date
2025-08-11
Launch site
AFETR
Launch vehicle
Mass (kg)
RCS (m²)

External: N2YO · Heavens-Above · Gunter

§ Orbital elements

Epoch: 2026-09-21T15:38:26.442816Z

Period
97.30 min
Inclination
51.9048°
Eccentricity
0.0000235
Mean motion
14.79932179 rev/d
Perigee alt
629.4 km
Apogee alt
629.7 km
Semi-major
7,007.7 km
B*
1.1615e-4
RAAN
9.0436°
Arg perigee
90.0749°
Mean anomaly
270.0240°
Rev number
6,194

§ Raw data

KUIPER-001091 65147U 25171R   26264.65169494  .00000665  00000+0  11615-3 0  99962 65147  51.9048   9.0436 0000235  90.0749 270.0240 14.79932179 61940

JSON: /api/v1/satellites/65147 · /tle

For live sub-satellite position, see the globe view (requires WebGL).

§ Visibility from observer

Set your observer location to see the next 7 days of passes ≥ 10°. The values pass through the URL so the page stays shareable.

No JS? Fill the form by hand. The geolocation button needs JavaScript.